Location: Sungai Bunut
(2.6333°N, 113.7333°E)
Time: 14:04:38
(UTC+00:00)

Vanguard 3 - Pass Details

Date: 08 December 2023
Orbit: 508 x 3239 km, 33.3° (Epoch: 21 February)

Event Time Altitude Azimuth Distance (km) Brightness Sun altitude
Rises 06:21:51 0° 212° (SSW) 5,874 12.1 50.4°
Reaches altitude 10° 06:26:27 10° 200° (SSW) 5,253 12.0 49.5°
Maximum altitude 06:39:42 27° 148° (SSE) 4,677 11.4 46.9°
Drops below altitude 10° 06:54:56 10° 97° (E) 6,130 11.4 43.9°
Sets 07:00:47 0° 86° (E) 6,997 11.5 42.7°
